This is the latest recevied weather packets stored in our database for station/object SALIDA. If no packets are shown the sender has not sent any weather packets the latest 10 day(s).
| Time | Temp. | Humidity | Pressure | Rain* | Wind** | Luminosity | Snow |
|---|---|---|---|---|---|---|---|
| 1777786291 | 7.22° C | 46% | 1013.2 hPa | 0 mm | - | - | - |
| 1777785391 | 7.78° C | 46% | 1013.1 hPa | 0 mm | - | - | - |
| 1777784491 | 8.33° C | 43% | 1013.1 hPa | 0 mm | - | - | - |
| 1777783591 | 8.89° C | 43% | 1013 hPa | 0 mm | - | - | - |
| 1777782691 | 9.44° C | 40% | 1013 hPa | 0 mm | - | - | - |
| 1777781791 | 10° C | 39% | 1013 hPa | 0 mm | - | - | - |
| 1777780891 | 10° C | 38% | 1013 hPa | 0 mm | - | - | - |
| 1777779991 | 10.56° C | 37% | 1012.8 hPa | 0 mm | - | - | - |
| 1777779091 | 11.11° C | 36% | 1012.8 hPa | 0 mm | - | - | - |
| 1777778191 | 11.67° C | 33% | 1012.4 hPa | 0 mm | - | - | - |
| 1777777291 | 12.22° C | 34% | 1012.4 hPa | 0 mm | - | - | - |
| 1777776391 | 12.78° C | 32% | 1012.3 hPa | 0 mm | - | - | - |
| 1777775491 | 13.89° C | 29% | 1012 hPa | 0 mm | - | - | - |
| 1777774591 | 14.44° C | 27% | 1011.9 hPa | 0 mm | - | - | - |
| 1777773691 | 14.44° C | 26% | 1011.6 hPa | 0 mm | - | - | - |
| 1777772791 | 14.44° C | 26% | 1011.3 hPa | 0 mm | - | - | - |
| 1777771891 | 15° C | 27% | 1011.4 hPa | 0 mm | - | - | - |
| 1777770991 | 15.56° C | 21% | 1011.3 hPa | 0 mm | - | - | - |
| 1777770091 | 16.11° C | 20% | 1011.3 hPa | 0 mm | - | - | - |
| 1777769191 | 17.22° C | 21% | 1011.4 hPa | 0 mm | - | - | - |
| 1777768291 | 17.78° C | 22% | 1011.4 hPa | 0 mm | - | - | - |
| 1777767391 | 17.22° C | 21% | 1011.5 hPa | 0 mm | - | - | - |
| 1777766491 | 17.78° C | 20% | 1011.5 hPa | 0 mm | - | - | - |
| 1777765591 | 18.33° C | 21% | 1011.6 hPa | 0 mm | - | - | - |
| 1777764691 | 18.33° C | 23% | 1011.6 hPa | 0 mm | - | - | - |
* Rain latest hour (hover to see other rain measurements)
** Current wind speed in m/s (hover to see current wind gust speed)